This is the latest recevied weather packets stored in our database for station/object W9WRP. If no packets are shown the sender has not sent any weather packets the latest 10 day(s).
| Time | Temp. | Humidity | Pressure | Rain* | Wind** | Luminosity | Snow |
|---|---|---|---|---|---|---|---|
| 1788116991 | 38.33° C | 28% | 1016 hPa | 0 mm | - | 768 W/m² | - |
| 1788116687 | 37.78° C | 29% | 1015.9 hPa | 0 mm | - | 819 W/m² | - |
| 1788116385 | 37.78° C | 29% | 1015.9 hPa | 0 mm | - | 690 W/m² | - |
| 1788116081 | 36.67° C | 31% | 1016.1 hPa | 0 mm | - | 782 W/m² | - |
| 1788115776 | 36.67° C | 31% | 1016.1 hPa | 0 mm | - | 761 W/m² | - |
| 1788115475 | 37.78° C | 30% | 1016.3 hPa | 0 mm | - | 736 W/m² | - |
| 1788115170 | 36.67° C | 30% | 1016.1 hPa | 0 mm | - | 738 W/m² | - |
| 1788114864 | 36.11° C | 31% | 1016.4 hPa | 0 mm | - | 723 W/m² | - |
| 1788114560 | 36.11° C | 32% | 1016.3 hPa | 0 mm | - | 713 W/m² | - |
| 1788114255 | 36.11° C | 33% | 1016.3 hPa | 0 mm | - | 705 W/m² | - |
| 1788113952 | 35.56° C | 32% | 1016.6 hPa | 0 mm | - | 700 W/m² | - |
| 1788113647 | 36.11° C | 32% | 1016.5 hPa | 0 mm | - | 690 W/m² | - |
| 1788113341 | 36.11° C | 32% | 1016.7 hPa | 0 mm | - | 683 W/m² | - |
| 1788113041 | 35.56° C | 32% | 1016.7 hPa | 0 mm | - | 669 W/m² | - |
| 1788112739 | 35° C | 34% | 1016.6 hPa | 0 mm | - | 658 W/m² | - |
| 1788112434 | 35.56° C | 32% | 1016.8 hPa | 0 mm | - | 643 W/m² | - |
| 1788112129 | 35° C | 33% | 1017 hPa | 0 mm | - | 561 W/m² | - |
| 1788111825 | 35.56° C | 33% | 1016.9 hPa | 0 mm | - | 450 W/m² | - |
| 1788111520 | 35.56° C | 33% | 1016.9 hPa | 0 mm | - | 621 W/m² | - |
| 1788111215 | 35° C | 34% | 1017 hPa | 0 mm | - | 611 W/m² | - |
| 1788110911 | 34.44° C | 34% | 1017 hPa | 0 mm | - | 607 W/m² | - |
| 1788110607 | 34.44° C | 34% | 1016.9 hPa | 0 mm | - | 592 W/m² | - |
| 1788110303 | 34.44° C | 35% | 1016.9 hPa | 0 mm | - | 584 W/m² | - |
| 1788109998 | 34.44° C | 35% | 1016.9 hPa | 0 mm | - | 573 W/m² | - |
| 1788109692 | 33.89° C | 35% | 1016.9 hPa | 0 mm | - | 563 W/m² | - |
* Rain latest hour (hover to see other rain measurements)
** Current wind speed in m/s (hover to see current wind gust speed)